Time,TemperatureF,DewpointF,PressureIn,WindDirection,WindDirectionDegrees,WindSpeedMPH,WindSpeedGustMPH,Humidity,HourlyPrecipIn,Conditions,Clouds,dailyrainin,SoftwareType,DateUTC
2013-02-20 00:02:00,16.0,10.0,30.06,WSW,249,12.0,20.0,78,0.00,,,0.08,,2013-02-20 05:02:00,
2013-02-20 00:12:00,16.0,10.0,30.06,WSW,249,12.0,20.0,78,0.00,,,0.08,,2013-02-20 05:12:00,
2013-02-20 00:22:00,16.0,10.0,30.07,West,267,15.0,19.0,78,0.00,,,0.08,,2013-02-20 05:22:00,
2013-02-20 00:32:00,16.0,10.0,30.07,WSW,252,13.0,18.0,78,0.00,,,0.04,,2013-02-20 05:32:00,
2013-02-20 00:43:00,16.0,10.0,30.07,WSW,252,13.0,18.0,78,0.00,,,0.04,,2013-02-20 05:43:00,
2013-02-20 00:52:00,16.0,11.0,30.08,WNW,290,11.0,19.0,79,0.00,,,0.04,,2013-02-20 05:52:00,
2013-02-20 01:02:00,16.0,11.0,30.08,WNW,299,10.0,16.0,79,0.00,,,0.04,,2013-02-20 06:02:00,
2013-02-20 01:11:00,16.0,11.0,30.08,WNW,299,10.0,16.0,79,0.00,,,0.04,,2013-02-20 06:11:00,
2013-02-20 01:22:00,16.0,11.0,30.08,NW,305,11.0,17.0,79,0.00,,,0.04,,2013-02-20 06:22:00,
2013-02-20 01:32:00,16.0,11.0,30.09,West,262,8.0,17.0,79,0.00,,,0.04,,2013-02-20 06:32:00,
2013-02-20 01:42:00,16.0,11.0,30.09,West,262,8.0,17.0,79,0.00,,,0.04,,2013-02-20 06:42:00,
2013-02-20 01:52:00,16.0,11.0,30.09,WSW,256,9.0,15.0,80,0.00,,,0.04,,2013-02-20 06:52:00,
2013-02-20 02:02:00,16.0,11.0,30.10,West,273,8.0,15.0,81,0.00,,,0.04,,2013-02-20 07:02:00,
2013-02-20 02:11:00,16.0,11.0,30.10,West,273,8.0,15.0,81,0.00,,,0.04,,2013-02-20 07:11:00,
2013-02-20 02:21:00,16.0,11.0,30.10,WNW,291,8.0,17.0,80,0.00,,,0.04,,2013-02-20 07:21:00,
2013-02-20 02:32:00,16.0,11.0,30.10,WSW,257,10.0,15.0,81,0.00,,,0.02,,2013-02-20 07:32:00,
2013-02-20 02:42:00,16.0,11.0,30.10,WSW,257,10.0,15.0,81,0.00,,,0.02,,2013-02-20 07:42:00,
2013-02-20 02:52:00,16.0,11.0,30.11,West,275,11.0,16.0,81,0.00,,,0.02,,2013-02-20 07:52:00,
2013-02-20 03:05:00,16.0,11.0,30.11,WSW,249,8.0,17.0,81,0.00,,,0.02,,2013-02-20 08:05:00,
2013-02-20 03:11:00,16.0,11.0,30.11,WSW,249,8.0,17.0,81,0.00,,,0.02,,2013-02-20 08:11:00,
2013-02-20 03:22:00,16.0,11.0,30.11,WSW,252,9.0,13.0,81,0.00,,,0.02,,2013-02-20 08:22:00,
2013-02-20 03:32:00,16.0,11.0,30.11,West,269,6.0,14.0,81,0.00,,,0.02,,2013-02-20 08:32:00,
2013-02-20 03:42:00,16.0,11.0,30.11,West,269,6.0,14.0,81,0.00,,,0.02,,2013-02-20 08:42:00,
2013-02-20 03:52:00,16.0,11.0,30.12,West,269,8.0,15.0,80,0.00,,,0.02,,2013-02-20 08:52:00,
2013-02-20 04:02:00,16.0,11.0,30.13,West,273,11.0,15.0,81,0.00,,,0.02,,2013-02-20 09:02:00,
2013-02-20 04:11:00,16.0,11.0,30.13,West,273,11.0,15.0,81,0.00,,,0.02,,2013-02-20 09:11:00,
2013-02-20 04:21:00,16.0,11.0,30.13,West,267,11.0,16.0,81,0.00,,,0.02,,2013-02-20 09:21:00,
2013-02-20 04:32:00,16.0,11.0,30.13,WSW,257,11.0,17.0,80,0.00,,,0.00,,2013-02-20 09:32:00,
2013-02-20 04:42:00,16.0,11.0,30.13,WSW,257,11.0,17.0,80,0.00,,,0.00,,2013-02-20 09:42:00,
2013-02-20 04:51:00,16.0,11.0,30.13,WSW,255,9.0,17.0,81,0.00,,,0.00,,2013-02-20 09:51:00,
2013-02-20 05:01:00,16.0,11.0,30.14,West,277,11.0,18.0,81,0.00,,,0.00,,2013-02-20 10:01:00,
2013-02-20 05:12:00,16.0,11.0,30.14,West,277,11.0,18.0,81,0.00,,,0.00,,2013-02-20 10:12:00,
2013-02-20 05:22:00,16.0,11.0,30.14,West,261,11.0,17.0,81,0.00,,,0.00,,2013-02-20 10:22:00,
2013-02-20 05:32:00,16.0,11.0,30.14,WSW,237,12.0,17.0,81,0.00,,,0.00,,2013-02-20 10:32:00,
2013-02-20 05:42:00,16.0,11.0,30.14,WSW,237,12.0,17.0,81,0.00,,,0.00,,2013-02-20 10:42:00,
2013-02-20 05:51:00,16.0,11.0,30.15,WNW,289,7.0,13.0,82,0.00,,,0.00,,2013-02-20 10:51:00,
2013-02-20 06:02:00,16.0,11.0,30.16,WNW,283,9.0,16.0,80,0.00,,,0.00,,2013-02-20 11:02:00,
2013-02-20 06:11:00,16.0,11.0,30.16,WNW,283,9.0,16.0,80,0.00,,,0.00,,2013-02-20 11:11:00,
2013-02-20 06:21:00,16.0,11.0,30.16,West,265,8.0,16.0,81,0.00,,,0.00,,2013-02-20 11:21:00,
2013-02-20 06:32:00,15.0,10.0,30.17,NNW,331,8.0,15.0,81,0.00,,,0.00,,2013-02-20 11:32:00,
2013-02-20 06:42:00,15.0,10.0,30.17,NNW,331,8.0,15.0,81,0.00,,,0.00,,2013-02-20 11:42:00,
2013-02-20 06:52:00,15.0,10.0,30.18,WSW,250,7.0,13.0,81,0.00,,,0.00,,2013-02-20 11:52:00,
2013-02-20 07:02:00,15.0,10.0,30.18,WSW,248,8.0,15.0,81,0.00,,,0.00,,2013-02-20 12:02:00,
2013-02-20 07:12:00,15.0,10.0,30.18,WSW,248,8.0,15.0,81,0.00,,,0.00,,2013-02-20 12:12:00,
2013-02-20 07:22:00,14.0,10.0,30.18,West,268,6.0,12.0,82,0.00,,,0.00,,2013-02-20 12:22:00,
2013-02-20 07:32:00,14.0,10.0,30.18,West,281,6.0,13.0,82,0.00,,,0.00,,2013-02-20 12:32:00,
2013-02-20 07:42:00,14.0,10.0,30.18,West,281,6.0,13.0,82,0.00,,,0.00,,2013-02-20 12:42:00,
2013-02-20 07:52:00,14.0,10.0,30.19,WSW,252,5.0,12.0,82,0.00,,,0.00,,2013-02-20 12:52:00,
2013-02-20 08:01:00,14.0,10.0,30.19,West,273,5.0,11.0,82,0.00,,,0.00,,2013-02-20 13:01:00,
2013-02-20 08:12:00,14.0,10.0,30.19,West,273,5.0,11.0,82,0.00,,,0.00,,2013-02-20 13:12:00,
2013-02-20 08:22:00,14.0,10.0,30.20,WNW,284,4.0,11.0,82,0.00,,,0.00,,2013-02-20 13:22:00,
2013-02-20 08:32:00,15.0,11.0,30.21,WNW,290,7.0,12.0,83,0.00,,,0.00,,2013-02-20 13:32:00,
2013-02-20 08:42:00,15.0,11.0,30.21,WNW,290,7.0,12.0,83,0.00,,,0.00,,2013-02-20 13:42:00,
2013-02-20 08:51:00,15.0,11.0,30.21,West,277,9.0,13.0,83,0.00,,,0.00,,2013-02-20 13:51:00,
2013-02-20 09:01:00,16.0,11.0,30.21,WNW,302,6.0,14.0,81,0.00,,,0.00,,2013-02-20 14:01:00,
2013-02-20 09:11:00,16.0,11.0,30.21,WNW,302,6.0,14.0,81,0.00,,,0.00,,2013-02-20 14:11:00,
2013-02-20 09:22:00,16.0,11.0,30.22,West,263,8.0,15.0,81,0.00,,,0.00,,2013-02-20 14:22:00,
2013-02-20 09:32:00,16.0,11.0,30.22,WNW,294,8.0,15.0,82,0.00,,,0.00,,2013-02-20 14:32:00,
2013-02-20 09:42:00,16.0,11.0,30.22,WNW,294,8.0,15.0,82,0.00,,,0.00,,2013-02-20 14:42:00,
2013-02-20 09:52:00,17.0,12.0,30.22,WSW,255,9.0,15.0,82,0.00,,,0.00,,2013-02-20 14:52:00,
2013-02-20 10:02:00,16.0,11.0,30.22,WSW,248,11.0,20.0,82,0.00,,,0.00,,2013-02-20 15:02:00,
2013-02-20 10:12:00,16.0,11.0,30.22,WSW,248,11.0,20.0,82,0.00,,,0.00,,2013-02-20 15:12:00,
2013-02-20 10:22:00,17.0,12.0,30.22,West,259,10.0,15.0,81,0.00,,,0.00,,2013-02-20 15:22:00,
2013-02-20 10:32:00,17.0,12.0,30.22,West,272,9.0,17.0,81,0.00,,,0.00,,2013-02-20 15:32:00,
2013-02-20 10:42:00,17.0,12.0,30.22,West,272,9.0,17.0,81,0.00,,,0.00,,2013-02-20 15:42:00,
2013-02-20 10:52:00,18.0,13.0,30.23,West,261,9.0,17.0,81,0.00,,,0.00,,2013-02-20 15:52:00,
2013-02-20 11:01:00,19.0,14.0,30.23,West,269,7.0,16.0,81,0.00,,,0.00,,2013-02-20 16:01:00,
2013-02-20 11:12:00,19.0,14.0,30.23,West,269,7.0,16.0,81,0.00,,,0.00,,2013-02-20 16:12:00,
2013-02-20 11:22:00,19.0,14.0,30.24,West,276,9.0,15.0,81,0.00,,,0.00,,2013-02-20 16:22:00,
2013-02-20 11:32:00,19.0,14.0,30.24,West,276,9.0,15.0,81,0.00,,,0.00,,2013-02-20 16:32:00,
2013-02-20 11:42:00,19.0,14.0,30.24,West,276,9.0,15.0,81,0.00,,,0.00,,2013-02-20 16:42:00,
2013-02-20 11:52:00,19.0,15.0,30.25,West,259,11.0,17.0,83,0.00,,,0.00,,2013-02-20 16:52:00,
2013-02-20 12:01:00,19.0,15.0,30.25,WSW,253,11.0,17.0,83,0.00,,,0.00,,2013-02-20 17:01:00,
2013-02-20 12:11:00,19.0,14.0,30.25,NW,308,8.0,14.0,82,0.00,,,0.00,,2013-02-20 17:11:00,
2013-02-20 12:21:00,19.0,14.0,30.25,NW,308,8.0,14.0,82,0.00,,,0.00,,2013-02-20 17:21:00,
2013-02-20 12:32:00,20.0,15.0,30.26,West,279,6.0,17.0,82,0.00,,,0.00,,2013-02-20 17:32:00,
2013-02-20 12:42:00,20.0,15.0,30.26,West,279,6.0,17.0,82,0.00,,,0.00,,2013-02-20 17:42:00,
2013-02-20 12:52:00,20.0,15.0,30.26,WNW,282,10.0,17.0,80,0.00,,,0.00,,2013-02-20 17:52:00,
2013-02-20 13:02:00,21.0,15.0,30.25,West,261,7.0,15.0,78,0.00,,,0.00,,2013-02-20 18:02:00,
2013-02-20 13:11:00,21.0,15.0,30.25,West,261,7.0,15.0,78,0.00,,,0.00,,2013-02-20 18:11:00,
2013-02-20 13:22:00,21.0,15.0,30.25,West,261,7.0,15.0,78,0.00,,,0.00,,2013-02-20 18:22:00,
2013-02-20 13:32:00,21.0,15.0,30.25,West,261,7.0,15.0,78,0.00,,,0.00,,2013-02-20 18:32:00,
2013-02-20 13:42:00,21.0,15.0,30.25,West,261,7.0,15.0,78,0.00,,,0.00,,2013-02-20 18:42:00,
2013-02-20 13:52:00,22.0,15.0,30.24,NW,315,6.0,14.0,75,0.00,,,0.00,,2013-02-20 18:52:00,
2013-02-20 14:01:00,22.0,15.0,30.24,NW,305,3.0,14.0,73,0.00,,,0.00,,2013-02-20 19:01:00,
2013-02-20 14:11:00,22.0,15.0,30.24,NW,305,3.0,14.0,73,0.00,,,0.00,,2013-02-20 19:11:00,
2013-02-20 14:21:00,23.0,15.0,30.24,West,281,6.0,12.0,71,0.00,,,0.00,,2013-02-20 19:21:00,
2013-02-20 14:32:00,23.0,15.0,30.24,West,267,2.0,12.0,72,0.00,,,0.00,,2013-02-20 19:32:00,
2013-02-20 14:41:00,23.0,15.0,30.24,West,267,2.0,12.0,72,0.00,,,0.00,,2013-02-20 19:41:00,
2013-02-20 14:52:00,22.0,15.0,30.25,West,273,4.0,12.0,74,0.00,,,0.00,,2013-02-20 19:52:00,
2013-02-20 15:01:00,22.0,15.0,30.25,NW,323,5.0,14.0,74,0.00,,,0.00,,2013-02-20 20:01:00,
2013-02-20 15:11:00,22.0,15.0,30.26,WNW,284,9.0,16.0,75,0.00,,,0.00,,2013-02-20 20:11:00,
2013-02-20 15:21:00,22.0,15.0,30.26,WNW,284,9.0,16.0,75,0.00,,,0.00,,2013-02-20 20:21:00,
2013-02-20 15:31:00,22.0,15.0,30.26,WNW,284,9.0,16.0,75,0.00,,,0.00,,2013-02-20 20:31:00,
2013-02-20 15:41:00,22.0,15.0,30.26,WNW,284,9.0,16.0,75,0.00,,,0.00,,2013-02-20 20:41:00,
2013-02-20 15:51:00,22.0,16.0,30.28,NW,326,3.0,15.0,76,0.00,,,0.00,,2013-02-20 20:51:00,
2013-02-20 16:01:00,22.0,15.0,30.28,North,350,3.0,13.0,75,0.00,,,0.00,,2013-02-20 21:01:00,
2013-02-20 16:11:00,22.0,15.0,30.28,North,350,3.0,13.0,75,0.00,,,0.00,,2013-02-20 21:11:00,
2013-02-20 16:21:00,23.0,16.0,30.28,WNW,292,7.0,11.0,75,0.00,,,0.00,,2013-02-20 21:21:00,
2013-02-20 16:32:00,23.0,16.0,30.28,WNW,290,5.0,10.0,75,0.00,,,0.00,,2013-02-20 21:32:00,
2013-02-20 16:42:00,23.0,16.0,30.28,WNW,290,5.0,10.0,75,0.00,,,0.00,,2013-02-20 21:42:00,
2013-02-20 16:52:00,23.0,16.0,30.28,West,262,2.0,9.0,75,0.00,,,0.00,,2013-02-20 21:52:00,
2013-02-20 17:02:00,23.0,16.0,30.28,North,5,2.0,12.0,75,0.00,,,0.00,,2013-02-20 22:02:00,
2013-02-20 17:11:00,23.0,16.0,30.28,North,5,2.0,12.0,75,0.00,,,0.00,,2013-02-20 22:11:00,
2013-02-20 17:21:00,23.0,17.0,30.28,North,360,1.0,10.0,76,0.00,,,0.00,,2013-02-20 22:21:00,
2013-02-20 17:31:00,22.0,16.0,30.28,NNW,329,1.0,9.0,77,0.00,,,0.00,,2013-02-20 22:31:00,
2013-02-20 17:43:00,22.0,16.0,30.28,NNW,329,1.0,9.0,77,0.00,,,0.00,,2013-02-20 22:43:00,
2013-02-20 17:51:00,22.0,16.0,30.28,NNE,30,1.0,8.0,78,0.00,,,0.00,,2013-02-20 22:51:00,
2013-02-20 18:01:00,22.0,17.0,30.28,North,360,1.0,5.0,80,0.00,,,0.00,,2013-02-20 23:01:00,
2013-02-20 18:12:00,22.0,17.0,30.28,North,360,1.0,5.0,80,0.00,,,0.00,,2013-02-20 23:12:00,
2013-02-20 18:22:00,22.0,16.0,30.28,WNW,284,2.0,7.0,79,0.00,,,0.00,,2013-02-20 23:22:00,
2013-02-20 18:32:00,22.0,17.0,30.29,WNW,288,3.0,9.0,81,0.00,,,0.00,,2013-02-20 23:32:00,
2013-02-20 18:42:00,22.0,17.0,30.29,WNW,288,3.0,9.0,81,0.00,,,0.00,,2013-02-20 23:42:00,
2013-02-20 18:52:00,22.0,16.0,30.29,ESE,109,3.0,7.0,79,0.00,,,0.00,,2013-02-20 23:52:00,
2013-02-20 19:03:00,22.0,16.0,30.30,NNE,22,2.0,8.0,79,0.00,,,0.00,,2013-02-21 00:03:00,
2013-02-20 19:11:00,22.0,16.0,30.30,NNE,22,2.0,8.0,79,0.00,,,0.00,,2013-02-21 00:11:00,
2013-02-20 19:22:00,22.0,16.0,30.30,NNE,26,2.0,8.0,79,0.00,,,0.00,,2013-02-21 00:22:00,
2013-02-20 19:32:00,22.0,16.0,30.31,WNW,282,1.0,5.0,79,0.00,,,0.00,,2013-02-21 00:32:00,
2013-02-20 19:42:00,22.0,16.0,30.31,WNW,282,1.0,5.0,79,0.00,,,0.00,,2013-02-21 00:42:00,
2013-02-20 19:52:00,22.0,16.0,30.30,WNW,294,2.0,11.0,79,0.00,,,0.00,,2013-02-21 00:52:00,
2013-02-20 20:01:00,22.0,16.0,30.30,North,10,1.0,6.0,78,0.00,,,0.00,,2013-02-21 01:01:00,
2013-02-20 20:11:00,22.0,16.0,30.30,North,10,1.0,6.0,78,0.00,,,0.00,,2013-02-21 01:11:00,
2013-02-20 20:21:00,22.0,16.0,30.31,North,350,0.0,5.0,79,0.00,,,0.00,,2013-02-21 01:21:00,
2013-02-20 20:32:00,22.0,16.0,30.31,North,350,1.0,6.0,79,0.00,,,0.00,,2013-02-21 01:32:00,
2013-02-20 20:42:00,22.0,16.0,30.31,North,350,1.0,6.0,79,0.00,,,0.00,,2013-02-21 01:42:00,
2013-02-20 20:52:00,22.0,16.0,30.32,NNW,329,2.0,6.0,79,0.00,,,0.00,,2013-02-21 01:52:00,
2013-02-20 21:02:00,22.0,16.0,30.32,NE,43,3.0,8.0,79,0.00,,,0.00,,2013-02-21 02:02:00,
2013-02-20 21:11:00,22.0,16.0,30.32,NE,43,3.0,8.0,79,0.00,,,0.00,,2013-02-21 02:11:00,
2013-02-20 21:22:00,22.0,17.0,30.31,SSE,157,3.0,8.0,80,0.00,,,0.00,,2013-02-21 02:22:00,
2013-02-20 21:32:00,22.0,17.0,30.32,SSE,167,2.0,6.0,80,0.00,,,0.00,,2013-02-21 02:32:00,
2013-02-20 21:42:00,22.0,17.0,30.32,SSE,167,2.0,6.0,80,0.00,,,0.00,,2013-02-21 02:42:00,
2013-02-20 21:51:00,22.0,17.0,30.32,SSE,167,2.0,6.0,80,0.00,,,0.00,,2013-02-21 02:51:00,
2013-02-20 22:02:00,22.0,17.0,30.32,East,80,2.0,8.0,81,0.00,,,0.00,,2013-02-21 03:02:00,
2013-02-20 22:12:00,22.0,17.0,30.32,East,80,2.0,8.0,81,0.00,,,0.00,,2013-02-21 03:12:00,
2013-02-20 22:21:00,22.0,17.0,30.32,South,188,3.0,10.0,80,0.00,,,0.00,,2013-02-21 03:21:00,
2013-02-20 22:32:00,22.0,17.0,30.32,North,360,3.0,7.0,82,0.00,,,0.00,,2013-02-21 03:32:00,
2013-02-20 22:42:00,22.0,17.0,30.32,North,360,3.0,7.0,82,0.00,,,0.00,,2013-02-21 03:42:00,
2013-02-20 22:51:00,21.0,17.0,30.32,NNW,344,3.0,9.0,83,0.00,,,0.00,,2013-02-21 03:51:00,
2013-02-20 23:01:00,21.0,16.0,30.31,North,5,5.0,14.0,79,0.00,,,0.00,,2013-02-21 04:01:00,
2013-02-20 23:11:00,21.0,16.0,30.31,North,5,5.0,14.0,79,0.00,,,0.00,,2013-02-21 04:11:00,
2013-02-20 23:22:00,21.0,15.0,30.31,WNW,300,4.0,13.0,77,0.00,,,0.00,,2013-02-21 04:22:00,
2013-02-20 23:32:00,21.0,15.0,30.31,NNW,348,2.0,8.0,78,0.00,,,0.00,,2013-02-21 04:32:00,
2013-02-20 23:42:00,21.0,15.0,30.31,NNW,348,2.0,8.0,78,0.00,,,0.00,,2013-02-21 04:42:00,
2013-02-20 23:52:00,21.0,15.0,30.32,NW,309,1.0,6.0,78,0.00,,,0.00,,2013-02-21 04:52:00,